Location: Ariel
(45.9570°N, 122.5700°W)
Time: 20:24:53
(UTC-07:00)

Transit 4A - Pass Details

Date: 27 July 2019
Orbit: 863 x 981 km, 66.8° (Epoch: 20 August)

Event Time Altitude Azimuth Distance (km) Brightness Sun altitude
Rises 00:08:50 0° 174° (S) 3,637 - -23.0°
Reaches altitude 10° 00:11:45 10° 162° (SSE) 2,707 - -23.1°
Maximum altitude 00:16:55 27° 107° (ESE) 1,791 - -23.4°
Exits shadow 00:16:55 27° 107° (ESE) 1,791 9.1 -23.4°
Drops below altitude 10° 00:22:07 10° 53° (NE) 2,741 10.6 -23.6°
Sets 00:25:04 0° 42° (NE) 3,691 11.5 -23.7°
